| time (UTC) | temp C | wind direction | speed KPH | gust KPH | rain 1hr cm | rain 24hr cm | rain mn cm | humidity % | barometer mb |
| 20260505031514 | 11 | 205 | 14.5 | 14.5 | 0.00 | 0.00 | 0.00 | 81 | 1011.0 |
| 20260505031010 | 11 | 206 | 16.1 | 16.1 | 0.00 | 0.00 | 0.00 | 81 | 1011.2 |
| 20260505030507 | 11 | 187 | 11.3 | 12.9 | 0.00 | 0.00 | 0.00 | 80 | 1011.1 |
| 20260505030002 | 11 | 213 | 14.5 | 16.1 | 0.00 | 0.00 | 0.00 | 80 | 1011.4 |
| 20260505025459 | 11 | 227 | 12.9 | 14.5 | 0.00 | 0.00 | 0.00 | 80 | 1011.2 |
| 20260505024958 | 11 | 213 | 11.3 | 11.3 | 0.00 | 0.00 | 0.00 | 79 | 1011.3 |
| 20260505024454 | 11 | 227 | 17.7 | 17.7 | 0.00 | 0.00 | 0.00 | 79 | 1011.2 |
| 20260505023952 | 11 | 235 | 14.5 | 14.5 | 0.00 | 0.00 | 0.00 | 79 | 1011.2 |
| 20260505023449 | 11 | 231 | 16.1 | 17.7 | 0.00 | 0.00 | 0.00 | 78 | 1011.1 |
| 20260505022946 | 11 | 206 | 14.5 | 16.1 | 0.00 | 0.00 | 0.00 | 78 | 1011.2 |
| 20260505022444 | 11 | 219 | 9.7 | 11.3 | 0.00 | 0.00 | 0.00 | 78 | 1011.3 |
| 20260505021941 | 11 | 213 | 14.5 | 16.1 | 0.00 | 0.00 | 0.00 | 77 | 1011.2 |
| 20260505021437 | 11 | 221 | 16.1 | 17.7 | 0.00 | 0.00 | 0.00 | 77 | 1011.5 |
| 20260505020933 | 11 | 219 | 14.5 | 17.7 | 0.00 | 0.00 | 0.00 | 77 | 1011.4 |
| 20260505020428 | 11 | 227 | 19.3 | 20.9 | 0.00 | 0.00 | 0.00 | 76 | 1011.3 |
| 20260505015925 | 11 | 210 | 20.9 | 22.5 | 0.00 | 0.00 | 0.00 | 76 | 1011.4 |
| 20260505015422 | 12 | 202 | 12.9 | 14.5 | 0.00 | 0.00 | 0.00 | 76 | 1011.4 |
| 20260505014920 | 12 | 227 | 17.7 | 20.9 | 0.00 | 0.00 | 0.00 | 76 | 1011.5 |
| 20260505014416 | 12 | 215 | 16.1 | 16.1 | 0.00 | 0.00 | 0.00 | 76 | 1011.4 |
| 20260505013913 | 12 | 217 | 17.7 | 20.9 | 0.00 | 0.00 | 0.00 | 76 | 1011.3 |
| 20260505013410 | 12 | 217 | 14.5 | 14.5 | 0.00 | 0.00 | 0.00 | 75 | 1011.4 |
| 20260505012908 | 12 | 212 | 14.5 | 17.7 | 0.00 | 0.00 | 0.00 | 75 | 1011.3 |
| 20260505012406 | 12 | 204 | 11.3 | 12.9 | 0.00 | 0.00 | 0.00 | 75 | 1011.1 |
| 20260505011902 | 12 | 212 | 16.1 | 17.7 | 0.00 | 0.00 | 0.00 | 75 | 1011.1 |
| 20260505011359 | 12 | 214 | 17.7 | 20.9 | 0.00 | 0.00 | 0.00 | 74 | 1010.9 |
| 20260505010855 | 12 | 202 | 24.1 | 25.7 | 0.00 | 0.00 | 0.00 | 73 | 1010.9 |
| 20260505010351 | 12 | 209 | 20.9 | 22.5 | 0.00 | 0.00 | 0.00 | 74 | 1011.0 |
| 20260505005847 | 12 | 215 | 14.5 | 17.7 | 0.00 | 0.00 | 0.00 | 74 | 1010.8 |
| 20260505005344 | 12 | 211 | 17.7 | 20.9 | 0.00 | 0.00 | 0.00 | 73 | 1010.4 |
| 20260505004842 | 12 | 212 | 25.7 | 27.4 | 0.00 | 0.00 | 0.00 | 72 | 1010.5 |
| 20260505004338 | 12 | 218 | 20.9 | 24.1 | 0.00 | 0.00 | 0.00 | 72 | 1010.4 |
| 20260505003835 | 12 | 238 | 22.5 | 25.7 | 0.00 | 0.00 | 0.00 | 72 | 1010.2 |
| 20260505003333 | 12 | 215 | 27.4 | 30.6 | 0.00 | 0.00 | 0.00 | 72 | 1010.0 |
| 20260505002828 | 13 | 211 | 20.9 | 24.1 | 0.00 | 0.00 | 0.00 | 72 | 1010.4 |
| 20260505002325 | 13 | 234 | 30.6 | 38.6 | 0.00 | 0.00 | 0.00 | 70 | 1010.1 |
| 20260505001824 | 13 | 228 | 22.5 | 24.1 | 0.00 | 0.00 | 0.00 | 70 | 1010.0 |
| 20260505001320 | 13 | 225 | 25.7 | 29.0 | 0.00 | 0.00 | 0.00 | 70 | 1009.7 |
| 20260505000818 | 13 | 229 | 30.6 | 33.8 | 0.00 | 0.00 | 0.00 | 69 | 1009.8 |
| 20260505000315 | 13 | 224 | 24.1 | 29.0 | 0.00 | 0.00 | 0.00 | 68 | 1009.8 |
| 20260504235812 | 13 | 227 | 27.4 | 29.0 | 0.00 | 0.00 | 0.00 | 67 | 1009.6 |
| 20260504235309 | 13 | 242 | 22.5 | 27.4 | 0.00 | 0.00 | 0.00 | 67 | 1009.5 |
| 20260504234806 | 13 | 235 | 27.4 | 29.0 | 0.00 | 0.00 | 0.00 | 66 | 1009.6 |
| 20260504234303 | 13 | 236 | 32.2 | 35.4 | 0.00 | 0.00 | 0.00 | 64 | 1009.4 |
| 20260504233759 | 13 | 223 | 27.4 | 29.0 | 0.00 | 0.00 | 0.00 | 65 | 1009.4 |
| 20260504233255 | 13 | 229 | 32.2 | 37.0 | 0.00 | 0.00 | 0.00 | 62 | 1009.3 |
| 20260504232752 | 13 | 234 | 32.2 | 35.4 | 0.00 | 0.00 | 0.00 | 63 | 1009.2 |
| 20260504232249 | 13 | 246 | 27.4 | 29.0 | 0.00 | 0.00 | 0.00 | 63 | 1009.3 |
| 20260504231746 | 14 | 227 | 38.6 | 41.8 | 0.00 | 0.00 | 0.00 | 60 | 1009.0 |
| 20260504231242 | 14 | 226 | 33.8 | 35.4 | 0.00 | 0.00 | 0.00 | 59 | 1009.0 |
| 20260504230738 | 14 | 222 | 27.4 | 30.6 | 0.00 | 0.00 | 0.00 | 59 | 1009.0 |
| 20260504230237 | 14 | 205 | 33.8 | 37.0 | 0.00 | 0.00 | 0.00 | 59 | 1009.0 |
| 20260504225736 | 14 | 218 | 29.0 | 30.6 | 0.00 | 0.00 | 0.00 | 60 | 1008.8 |
| 20260504225231 | 14 | 216 | 32.2 | 35.4 | 0.00 | 0.00 | 0.00 | 59 | 1009.0 |
| 20260504224729 | 14 | 214 | 32.2 | 35.4 | 0.00 | 0.00 | 0.00 | 59 | 1008.9 |
| 20260504224226 | 15 | 230 | 30.6 | 35.4 | 0.00 | 0.00 | 0.00 | 57 | 1008.9 |
| 20260504223722 | 14 | 216 | 30.6 | 33.8 | 0.00 | 0.00 | 0.00 | 60 | 1009.0 |
| 20260504223217 | 15 | 208 | 29.0 | 30.6 | 0.00 | 0.00 | 0.00 | 61 | 1008.9 |
| 20260504222715 | 15 | 202 | 30.6 | 35.4 | 0.00 | 0.00 | 0.00 | 60 | 1008.8 |
| 20260504222212 | 15 | 213 | 25.7 | 29.0 | 0.00 | 0.00 | 0.00 | 58 | 1008.8 |
| 20260504221709 | 16 | 230 | 37.0 | 38.6 | 0.00 | 0.00 | 0.00 | 51 | 1008.7 |
| 20260504221206 | 16 | 233 | 24.1 | 27.4 | 0.00 | 0.00 | 0.00 | 53 | 1008.7 |
| 20260504220703 | 15 | 224 | 30.6 | 33.8 | 0.00 | 0.00 | 0.00 | 52 | 1008.6 |
| 20260504220200 | 16 | 230 | 24.1 | 25.7 | 0.00 | 0.00 | 0.00 | 56 | 1008.6 |
| 20260504215656 | 15 | 211 | 29.0 | 30.6 | 0.00 | 0.00 | 0.00 | 55 | 1008.8 |
| 20260504215154 | 16 | 230 | 20.9 | 25.7 | 0.00 | 0.00 | 0.00 | 53 | 1008.7 |
| 20260504214649 | 16 | 230 | 33.8 | 37.0 | 0.00 | 0.00 | 0.00 | 49 | 1008.5 |
| 20260504214146 | 16 | 232 | 32.2 | 33.8 | 0.00 | 0.00 | 0.00 | 51 | 1008.4 |
| 20260504213643 | 16 | 219 | 33.8 | 37.0 | 0.00 | 0.00 | 0.00 | 54 | 1008.6 |
| 20260504213139 | 16 | 207 | 27.4 | 29.0 | 0.00 | 0.00 | 0.00 | 54 | 1008.4 |
| 20260504212636 | 16 | 208 | 30.6 | 35.4 | 0.00 | 0.00 | 0.00 | 53 | 1008.5 |
| 20260504212133 | 16 | 219 | 29.0 | 33.8 | 0.00 | 0.00 | 0.00 | 51 | 1008.4 |
| 20260504211630 | 16 | 221 | 24.1 | 25.7 | 0.00 | 0.00 | 0.00 | 53 | 1008.5 |
| 20260504211126 | 16 | 224 | 32.2 | 35.4 | 0.00 | 0.00 | 0.00 | 52 | 1008.4 |
| 20260504210624 | 16 | 203 | 32.2 | 33.8 | 0.00 | 0.00 | 0.00 | 51 | 1008.4 |
| 20260504210120 | 17 | 222 | 25.7 | 27.4 | 0.00 | 0.00 | 0.00 | 51 | 1008.3 |
| 20260504205618 | 17 | 234 | 29.0 | 33.8 | 0.00 | 0.00 | 0.00 | 48 | 1008.4 |
| 20260504205116 | 17 | 230 | 30.6 | 33.8 | 0.00 | 0.00 | 0.00 | 47 | 1008.3 |
| 20260504204614 | 17 | 230 | 33.8 | 38.6 | 0.00 | 0.00 | 0.00 | 49 | 1008.4 |
| 20260504204112 | 17 | 230 | 22.5 | 24.1 | 0.00 | 0.00 | 0.00 | 48 | 1008.1 |
| 20260504203610 | 17 | 223 | 30.6 | 35.4 | 0.00 | 0.00 | 0.00 | 46 | 1008.3 |
| 20260504203102 | 17 | 229 | 24.1 | 27.4 | 0.00 | 0.00 | 0.00 | 47 | 1008.2 |
| 20260504202557 | 17 | 245 | 22.5 | 29.0 | 0.00 | 0.00 | 0.00 | 44 | 1008.3 |
| 20260504202054 | 17 | 251 | 29.0 | 33.8 | 0.00 | 0.00 | 0.00 | 45 | 1008.2 |
| 20260504201551 | 17 | 232 | 32.2 | 35.4 | 0.00 | 0.00 | 0.00 | 45 | 1008.1 |
| 20260504201049 | 17 | 234 | 27.4 | 29.0 | 0.00 | 0.00 | 0.00 | 46 | 1008.3 |
| 20260504200545 | 17 | 238 | 24.1 | 27.4 | 0.00 | 0.00 | 0.00 | 44 | 1008.2 |
| 20260504200042 | 17 | 269 | 27.4 | 30.6 | 0.00 | 0.00 | 0.00 | 45 | 1008.1 |
| 20260504195538 | 17 | 227 | 30.6 | 35.4 | 0.00 | 0.00 | 0.00 | 47 | 1008.2 |
| 20260504195035 | 17 | 207 | 22.5 | 27.4 | 0.00 | 0.00 | 0.00 | 46 | 1008.3 |
| 20260504194531 | 17 | 236 | 22.5 | 27.4 | 0.00 | 0.00 | 0.00 | 44 | 1008.4 |
| 20260504194027 | 17 | 248 | 25.7 | 29.0 | 0.00 | 0.00 | 0.00 | 46 | 1008.3 |
| 20260504193524 | 17 | 235 | 27.4 | 33.8 | 0.00 | 0.00 | 0.00 | 47 | 1008.2 |
| 20260504193023 | 17 | 238 | 20.9 | 24.1 | 0.00 | 0.00 | 0.00 | 48 | 1008.2 |
| 20260504192520 | 16 | 256 | 24.1 | 30.6 | 0.00 | 0.00 | 0.00 | 47 | 1008.2 |
| 20260504192018 | 17 | 218 | 30.6 | 33.8 | 0.00 | 0.00 | 0.00 | 46 | 1008.3 |
| 20260504191516 | 17 | 302 | 24.1 | 29.0 | 0.00 | 0.00 | 0.00 | 45 | 1008.3 |
| 20260504191012 | 17 | 232 | 35.4 | 40.2 | 0.00 | 0.00 | 0.00 | 43 | 1008.4 |
| 20260504190508 | 17 | 233 | 32.2 | 35.4 | 0.00 | 0.00 | 0.00 | 44 | 1008.4 |
| 20260504190004 | 17 | 235 | 33.8 | 41.8 | 0.00 | 0.00 | 0.00 | 46 | 1008.5 |
| 20260504185501 | 17 | 244 | 30.6 | 38.6 | 0.00 | 0.00 | 0.00 | 44 | 1008.4 |
| 20260504184958 | 17 | 235 | 46.7 | 49.9 | 0.00 | 0.00 | 0.00 | 41 | 1008.6 |
| 20260504184453 | 16 | 220 | 37.0 | 41.8 | 0.00 | 0.00 | 0.00 | 45 | 1008.4 |
| 20260504183949 | 17 | 231 | 41.8 | 48.3 | 0.00 | 0.00 | 0.00 | 41 | 1008.6 |
| 20260504183446 | 17 | 236 | 41.8 | 43.5 | 0.00 | 0.00 | 0.00 | 44 | 1008.4 |
| 20260504182944 | 17 | 234 | 24.1 | 30.6 | 0.00 | 0.00 | 0.00 | 43 | 1008.7 |
| 20260504182441 | 17 | 220 | 33.8 | 40.2 | 0.00 | 0.00 | 0.00 | 45 | 1008.6 |
| 20260504181938 | 17 | 235 | 41.8 | 43.5 | 0.00 | 0.00 | 0.00 | 42 | 1008.5 |
| 20260504181435 | 17 | 227 | 37.0 | 41.8 | 0.00 | 0.00 | 0.00 | 42 | 1008.9 |
| 20260504180934 | 17 | 294 | 29.0 | 33.8 | 0.00 | 0.00 | 0.00 | 42 | 1008.8 |
| 20260504180432 | 17 | 209 | 22.5 | 25.7 | 0.00 | 0.00 | 0.00 | 42 | 1008.9 |
| 20260504175930 | 17 | 224 | 38.6 | 48.3 | 0.00 | 0.00 | 0.00 | 40 | 1008.8 |
| 20260504175427 | 17 | 254 | 32.2 | 37.0 | 0.00 | 0.00 | 0.00 | 38 | 1008.7 |
| 20260504174925 | 17 | 229 | 41.8 | 48.3 | 0.00 | 0.00 | 0.00 | 39 | 1008.8 |
| 20260504174422 | 17 | 229 | 37.0 | 41.8 | 0.00 | 0.00 | 0.00 | 38 | 1008.8 |
| 20260504173919 | 17 | 270 | 16.1 | 20.9 | 0.00 | 0.00 | 0.00 | 41 | 1008.7 |
| 20260504173415 | 17 | 226 | 27.4 | 33.8 | 0.00 | 0.00 | 0.00 | 41 | 1008.7 |
| 20260504172913 | 17 | 219 | 35.4 | 41.8 | 0.00 | 0.00 | 0.00 | 40 | 1008.7 |
| 20260504172409 | 17 | 229 | 33.8 | 38.6 | 0.00 | 0.00 | 0.00 | 40 | 1008.7 |
| 20260504171905 | 17 | 267 | 12.9 | 22.5 | 0.00 | 0.00 | 0.00 | 38 | 1008.9 |
| 20260504171403 | 17 | 293 | 6.4 | 6.4 | 0.00 | 0.00 | 0.00 | 41 | 1009.0 |
| 20260504170900 | 17 | 247 | 24.1 | 27.4 | 0.00 | 0.00 | 0.00 | 39 | 1009.0 |
| 20260504170356 | 17 | 267 | 30.6 | 35.4 | 0.00 | 0.00 | 0.00 | 41 | 1009.0 |
| 20260504160315 | 16 | 256 | 19.3 | 24.1 | 0.00 | 0.00 | 0.00 | 40 | 1009.6 |
| 20260504150739 | 16 | 256 | 17.7 | 20.9 | 0.00 | 0.00 | 0.00 | 44 | 1010.1 |
| 20260504150236 | 17 | 276 | 8.0 | 12.9 | 0.00 | 0.00 | 0.00 | 45 | 1010.3 |
| 20260504141206 | 15 | 301 | 14.5 | 17.7 | 0.00 | 0.00 | 0.00 | 47 | 1010.8 |
| 20260504140703 | 15 | 214 | 12.9 | 14.5 | 0.00 | 0.00 | 0.00 | 51 | 1010.7 |
| 20260504140158 | 15 | 232 | 11.3 | 12.9 | 0.00 | 0.00 | 0.00 | 51 | 1010.6 |
| 20260504130626 | 15 | 256 | 8.0 | 12.9 | 0.00 | 0.00 | 0.00 | 48 | 1011.1 |
| 20260504130123 | 14 | 9 | 8.0 | 11.3 | 0.00 | 0.00 | 0.00 | 49 | 1011.3 |
| 20260504110514 | 10 | 253 | 14.5 | 16.1 | 0.00 | 0.00 | 0.00 | 63 | 1011.1 |
| 20260504100436 | 8 | 240 | 11.3 | 12.9 | 0.00 | 0.00 | 0.00 | 68 | 1010.8 |
| 20260504081829 | 8 | 246 | 9.7 | 11.3 | 0.00 | 0.00 | 0.00 | 61 | 1010.5 |
| 20260504081326 | 8 | 247 | 12.9 | 12.9 | 0.00 | 0.00 | 0.00 | 58 | 1010.5 |
| 20260504080822 | 8 | 225 | 9.7 | 11.3 | 0.00 | 0.00 | 0.00 | 62 | 1010.5 |
| 20260504080320 | 8 | 242 | 8.0 | 9.7 | 0.00 | 0.00 | 0.00 | 62 | 1010.4 |
| 20260504070246 | 8 | 215 | 1.6 | 3.2 | 0.00 | 0.00 | 0.00 | 57 | 1010.5 |
| 20260504060207 | 7 | 96 | 1.6 | 1.6 | 0.00 | 0.00 | 0.00 | 57 | 1010.2 |
| 20260504050635 | 7 | 248 | 3.2 | 4.8 | 0.00 | 0.00 | 0.00 | 57 | 1010.3 |
| 20260504050132 | 7 | 62 | 1.6 | 3.2 | 0.00 | 0.00 | 0.00 | 59 | 1010.4 |
| 20260504045629 | 7 | 68 | 0.0 | 1.6 | 0.00 | 0.00 | 0.00 | 57 | 1010.3 |
| 20260504045124 | 7 | 33 | 3.2 | 3.2 | 0.00 | 0.00 | 0.00 | 55 | 1010.3 |
| 20260504044622 | 7 | 43 | 3.2 | 3.2 | 0.00 | 0.00 | 0.00 | 59 | 1010.5 |
| 20260504044118 | 7 | 27 | 3.2 | 3.2 | 0.00 | 0.00 | 0.00 | 59 | 1010.5 |
| 20260504043615 | 7 | 254 | 3.2 | 4.8 | 0.00 | 0.00 | 0.00 | 62 | 1010.5 |
| 20260504043113 | 7 | 303 | 3.2 | 3.2 | 0.00 | 0.00 | 0.00 | 61 | 1010.4 |
| 20260504042610 | 7 | 193 | 1.6 | 3.2 | 0.00 | 0.00 | 0.00 | 62 | 1010.5 |
| 20260504042107 | 7 | 36 | 1.6 | 3.2 | 0.00 | 0.00 | 0.00 | 62 | 1010.4 |
| 20260504041602 | 7 | 69 | 1.6 | 1.6 | 0.00 | 0.00 | 0.00 | 60 | 1010.4 |
| 20260504041059 | 7 | 62 | 1.6 | 3.2 | 0.00 | 0.00 | 0.00 | 63 | 1010.3 |
| 20260504040556 | 7 | 235 | 3.2 | 4.8 | 0.00 | 0.00 | 0.00 | 63 | 1010.3 |
| 20260504040053 | 7 | 250 | 4.8 | 4.8 | 0.00 | 0.00 | 0.00 | 63 | 1010.5 |
| 20260504035549 | 7 | 116 | 3.2 | 3.2 | 0.00 | 0.00 | 0.00 | 62 | 1010.2 |
| 20260504035045 | 7 | 36 | 1.6 | 1.6 | 0.00 | 0.00 | 0.00 | 63 | 1010.4 |
| 20260504034544 | 8 | 42 | 3.2 | 3.2 | 0.00 | 0.00 | 0.00 | 61 | 1010.2 |
| 20260504034040 | 8 | 269 | 4.8 | 6.4 | 0.00 | 0.00 | 0.00 | 60 | 1010.3 |
| 20260504033538 | 8 | 240 | 6.4 | 6.4 | 0.00 | 0.00 | 0.00 | 58 | 1010.1 |
| 20260504033035 | 8 | 229 | 8.0 | 9.7 | 0.00 | 0.00 | 0.00 | 58 | 1010.0 |
| 20260504032532 | 8 | 253 | 9.7 | 11.3 | 0.00 | 0.00 | 0.00 | 57 | 1010.1 |
| 20260504032029 | 8 | 247 | 9.7 | 11.3 | 0.00 | 0.00 | 0.00 | 59 | 1010.0 |